Showing default

ANGELS, 44876

Orbit data source: Space-Track

ANGELS, 44876 is a payload satellite owned by CNES (FR) in SSO that was launched on Wed, 18 Dec 2019 UTC via a SOYUZ-ST-A launch vehicle from the French Guiana (FRGUI). Payload-class satellites include a variety of spacecraft equipped with specific instruments for various scientific and technological missions. These include communications satellites like Starlink; space stations such as the ISS; scientific satellites like the Hubble; Earth observation satellites from companies like Planet Labs, Umbra, and HawkEye 360; GPS; miniature CubeSats for education and research; and military/defense satellites.

Loading next visibility...
Identifier
44876, 2019-092D
Orbit
SSO
Country
Flag of FRFR
Related business
Manufacturer
Hemeria
Mission
Non-operational Civil Communications
Bus & Motor
CUBESAT 12U, Unknown motor
Mass
27 kg wet, 27 kg dry
Launch date (UTC)
2019-12-18 (6 years ago)
Launch vehicle
SOYUZ-ST-A
Launch site
French Guiana (FRGUI)
Object type
Payload
Rocket body
Debris
Shape & HBR
Box + 2 Pan, Unknown HBR
Radar Cross Section
0.126 m², Medium (>0.1 m² and < 1m²)

Expand to show TLE details & history
Last TLE update: 23 hours ago

TLE from 23 hours ago
0 ANGELS
1 44876U 19092D   25260.01230389  .00033292  00000-0  59676-3 0  9996
2 44876  97.4484 101.2937 0007205 122.4976 237.6972 15.49846322319514
Epoch: 2025-09-17T00:17Z
TLE epoch observation values (Epoch: 2025-09-17T00:17:43.056Z)
Latitude
-0.00004°
Longitude
100.66994°
Altitude
422.924 km
Speed
7.656 km/s
True Right ascension
06h 45m 10s
True Declination
0° 00' 00"
Sunlit
Object was in daylight at epoch
Visualization orbit readout
Latitude
Unknown
Longitude
Unknown
Altitude
Unknown
Speed
Unknown
Apparent Right ascension
Unknown
Apparent Declination
Unknown
Sunlit
N/A
Visualization observer readout
Local Sidereal Time
16:08:13
Azimuth
Unknown
Elevation
Unknown
Doppler factor
Unknown
Orbital elements
Apogee altitude
418.997 km
Perigee altitude
409.209 km
Semi-major axis
6,792.24 km
Eccentricity
0.00072
Inclination
97.4484°
RAAN
101.2937°
Arg. of periapsis
122.4976°
True anomaly
237.62745°
Mean anomaly
237.6972°
Eccentric anomaly
237.66232°
Mean motion
3.87725 °/min
Orbital period
92.85 mins
BSTAR
0.00059676
Loading maneuver chart data...
Computing Atmospheric mass density...
Loading historical data...
Loading historical data...
Loading historical data...
Loading historical data...
Loading historical data...
Loading historical data...
Loading historical data...

Documentation

Showing up to 5 results
|